User: anonymous   Login
Location: Unspecified
(0.0000°N, 0.0000°E)
Time: 00:21:16
(UTC+00:00)
Language:

USA 112 - Orbit

View from above orbital plane
View from above orbital plane
View from above satellite
View from above satellite

Ground track
Ground track

The orbit data is extracted from the following two-line orbital elements,

1 23609U 95034A   17074.55492430 0.00000000  00000-0  00000-0 0    05
2 23609  63.2687 160.7111 6836278 265.8659  19.9760  2.00617000    00
Epoch (UTC): 15 March 2017 13:19:05
Eccentricity: 0.6836278
inclination: 63.2687°
perigee height: 2023 km
apogee height: 38331 km
right ascension of ascending node: 160.7111°
argument of perigee: 265.8659°
revolutions per day: 2.00617000
mean anomaly at epoch: 19.9760°
orbit number at epoch: 0

The dashed part of the orbit path shows where the satellite is in the earth's shadow,  

DLR